Time,TemperatureF,DewpointF,PressureIn,WindDirection,WindDirectionDegrees,WindSpeedMPH,WindSpeedGustMPH,Humidity,HourlyPrecipIn,Conditions,Clouds,dailyrainin,SoftwareType,DateUTC
2013-04-22 00:01:00,44.6,33.9,30.19,South,180,5.6,5.6,66,0.00,,,0.00,WUHU216HW,2013-04-22 05:01:00,
2013-04-22 00:06:00,44.5,34.6,30.19,South,180,4.7,9.2,68,0.00,,,0.00,WUHU216HW,2013-04-22 05:06:00,
2013-04-22 00:11:00,44.3,34.0,30.19,SSE,158,5.8,9.2,67,0.00,,,0.00,WUHU216HW,2013-04-22 05:11:00,
2013-04-22 00:16:00,44.3,34.4,30.19,SSW,203,4.5,7.8,68,0.00,,,0.00,WUHU216HW,2013-04-22 05:16:00,
2013-04-22 00:21:00,44.3,34.4,30.19,SSE,158,4.3,9.4,68,0.00,,,0.00,WUHU216HW,2013-04-22 05:21:00,
2013-04-22 00:26:00,44.3,34.4,30.19,SSE,158,7.8,9.4,68,0.00,,,0.00,WUHU216HW,2013-04-22 05:26:00,
2013-04-22 00:31:00,44.3,34.4,30.19,ESE,113,7.2,7.8,68,0.00,,,0.00,WUHU216HW,2013-04-22 05:31:00,
2013-04-22 00:36:00,44.5,34.6,30.18,SSW,203,5.6,8.1,68,0.00,,,0.00,WUHU216HW,2013-04-22 05:36:00,
2013-04-22 00:41:00,44.5,34.6,30.18,SSE,158,6.9,9.6,68,0.00,,,0.00,WUHU216HW,2013-04-22 05:41:00,
2013-04-22 00:46:00,44.5,34.6,30.18,South,180,5.4,10.5,68,0.00,,,0.00,WUHU216HW,2013-04-22 05:46:00,
2013-04-22 00:51:00,44.5,34.6,30.18,SSE,158,8.9,11.4,68,0.00,,,0.00,WUHU216HW,2013-04-22 05:51:00,
2013-04-22 00:56:00,44.5,34.6,30.18,South,180,9.4,11.4,68,0.00,,,0.00,WUHU216HW,2013-04-22 05:56:00,
2013-04-22 01:01:00,44.3,34.4,30.18,South,180,9.2,10.1,68,0.00,,,0.00,WUHU216HW,2013-04-22 06:01:00,
2013-04-22 01:06:00,44.3,34.4,30.18,South,180,12.8,12.8,68,0.00,,,0.00,WUHU216HW,2013-04-22 06:06:00,
2013-04-22 01:11:00,44.3,34.4,30.17,East,90,7.6,12.8,68,0.00,,,0.00,WUHU216HW,2013-04-22 06:11:00,
2013-04-22 01:16:00,44.3,34.4,30.17,SSW,203,10.3,10.3,68,0.00,,,0.00,WUHU216HW,2013-04-22 06:16:00,
2013-04-22 01:21:00,44.3,34.4,30.17,SSE,158,5.4,10.3,68,0.00,,,0.00,WUHU216HW,2013-04-22 06:21:00,
2013-04-22 01:26:00,44.1,34.2,30.17,SSE,158,4.0,7.8,68,0.00,,,0.00,WUHU216HW,2013-04-22 06:26:00,
2013-04-22 01:31:00,43.9,34.0,30.17,ESE,113,9.8,9.8,68,0.00,,,0.00,WUHU216HW,2013-04-22 06:31:00,
2013-04-22 01:36:00,43.9,34.0,30.17,SSW,203,7.2,13.2,68,0.00,,,0.00,WUHU216HW,2013-04-22 06:36:00,
2013-04-22 01:41:00,44.1,34.2,30.17,South,180,9.4,13.2,68,0.00,,,0.00,WUHU216HW,2013-04-22 06:41:00,
2013-04-22 01:46:00,43.9,34.0,30.17,SSE,158,6.5,12.8,68,0.00,,,0.00,WUHU216HW,2013-04-22 06:46:00,
2013-04-22 01:51:00,43.9,34.0,30.17,SW,225,5.4,8.5,68,0.00,,,0.00,WUHU216HW,2013-04-22 06:51:00,
2013-04-22 01:56:00,43.9,34.0,30.17,South,180,6.7,7.2,68,0.00,,,0.00,WUHU216HW,2013-04-22 06:56:00,
2013-04-22 02:01:00,43.9,34.0,30.16,South,180,5.4,8.1,68,0.00,,,0.00,WUHU216HW,2013-04-22 07:01:00,
2013-04-22 02:06:00,44.1,34.2,30.16,SSW,203,7.4,9.2,68,0.00,,,0.00,WUHU216HW,2013-04-22 07:06:00,
2013-04-22 02:11:00,44.1,34.2,30.16,SSE,158,10.5,10.5,68,0.00,,,0.00,WUHU216HW,2013-04-22 07:11:00,
2013-04-22 02:16:00,44.1,34.2,30.16,SSW,203,7.2,10.7,68,0.00,,,0.00,WUHU216HW,2013-04-22 07:16:00,
2013-04-22 02:21:00,44.1,34.2,30.16,South,180,6.0,10.7,68,0.00,,,0.00,WUHU216HW,2013-04-22 07:21:00,
2013-04-22 02:26:00,44.1,34.2,30.16,SE,135,6.3,11.4,68,0.00,,,0.00,WUHU216HW,2013-04-22 07:26:00,
2013-04-22 02:31:00,43.9,34.0,30.17,South,180,10.1,11.4,68,0.00,,,0.00,WUHU216HW,2013-04-22 07:31:00,
2013-04-22 02:36:00,44.1,34.2,30.17,South,180,4.3,10.1,68,0.00,,,0.00,WUHU216HW,2013-04-22 07:36:00,
2013-04-22 02:41:00,43.9,34.0,30.17,SSW,203,6.0,8.7,68,0.00,,,0.00,WUHU216HW,2013-04-22 07:41:00,
2013-04-22 02:46:00,44.1,34.2,30.17,SSW,203,4.7,8.7,68,0.00,,,0.00,WUHU216HW,2013-04-22 07:46:00,
2013-04-22 02:51:00,44.1,34.2,30.17,SSW,203,6.3,7.6,68,0.00,,,0.00,WUHU216HW,2013-04-22 07:51:00,
2013-04-22 02:56:00,44.1,34.2,30.17,SSE,158,4.7,8.1,68,0.00,,,0.00,WUHU216HW,2013-04-22 07:56:00,
2013-04-22 03:01:00,44.1,34.2,30.17,South,180,5.4,8.1,68,0.00,,,0.00,WUHU216HW,2013-04-22 08:01:00,
2013-04-22 03:06:00,44.1,34.2,30.17,SSW,203,4.0,5.6,68,0.00,,,0.00,WUHU216HW,2013-04-22 08:06:00,
2013-04-22 03:11:00,44.1,34.2,30.16,SSE,158,8.5,8.5,68,0.00,,,0.00,WUHU216HW,2013-04-22 08:11:00,
2013-04-22 03:16:00,44.1,34.2,30.16,SSW,203,5.6,8.5,68,0.00,,,0.00,WUHU216HW,2013-04-22 08:16:00,
2013-04-22 03:21:00,43.9,34.0,30.16,South,180,4.9,7.4,68,0.00,,,0.00,WUHU216HW,2013-04-22 08:21:00,
2013-04-22 03:26:00,44.1,34.2,30.16,SSW,203,2.7,7.6,68,0.00,,,0.00,WUHU216HW,2013-04-22 08:26:00,
2013-04-22 03:31:00,44.1,34.2,30.16,South,180,6.0,7.6,68,0.00,,,0.00,WUHU216HW,2013-04-22 08:31:00,
2013-04-22 03:36:00,44.1,34.2,30.16,SSE,158,4.9,9.8,68,0.00,,,0.00,WUHU216HW,2013-04-22 08:36:00,
2013-04-22 03:41:00,44.1,34.2,30.16,SW,225,4.3,10.5,68,0.00,,,0.00,WUHU216HW,2013-04-22 08:41:00,
2013-04-22 03:46:00,44.3,34.0,30.16,South,180,8.7,10.5,67,0.00,,,0.00,WUHU216HW,2013-04-22 08:46:00,
2013-04-22 03:51:00,44.3,34.0,30.16,South,180,7.6,8.7,67,0.00,,,0.00,WUHU216HW,2013-04-22 08:51:00,
2013-04-22 03:56:00,44.3,34.0,30.16,SSW,203,6.3,11.0,67,0.00,,,0.00,WUHU216HW,2013-04-22 08:56:00,
2013-04-22 04:01:00,44.3,34.0,30.16,SW,225,1.3,11.0,67,0.00,,,0.00,WUHU216HW,2013-04-22 09:01:00,
2013-04-22 04:06:00,44.3,34.0,30.18,SW,225,3.1,9.8,67,0.00,,,0.00,WUHU216HW,2013-04-22 09:06:00,
2013-04-22 04:11:00,44.3,34.0,30.18,SSE,158,4.9,6.7,67,0.00,,,0.00,WUHU216HW,2013-04-22 09:11:00,
2013-04-22 04:16:00,44.3,34.4,30.17,SSE,158,3.6,10.5,68,0.00,,,0.00,WUHU216HW,2013-04-22 09:16:00,
2013-04-22 04:21:00,44.3,34.4,30.18,SSE,158,3.6,10.5,68,0.00,,,0.00,WUHU216HW,2013-04-22 09:21:00,
2013-04-22 04:26:00,44.3,34.4,30.18,SSW,203,2.5,5.6,68,0.00,,,0.00,WUHU216HW,2013-04-22 09:26:00,
2013-04-22 04:31:00,44.3,34.4,30.18,SSW,203,1.8,3.6,68,0.00,,,0.00,WUHU216HW,2013-04-22 09:31:00,
2013-04-22 04:36:00,44.1,34.2,30.18,SW,225,4.0,4.0,68,0.00,,,0.00,WUHU216HW,2013-04-22 09:36:00,
2013-04-22 04:41:00,44.1,34.2,30.18,SSE,158,4.7,4.7,68,0.00,,,0.00,WUHU216HW,2013-04-22 09:41:00,
2013-04-22 04:46:00,43.9,34.0,30.18,SSW,203,4.0,4.7,68,0.00,,,0.00,WUHU216HW,2013-04-22 09:46:00,
2013-04-22 04:51:00,43.9,34.0,30.17,SSW,203,5.4,6.0,68,0.00,,,0.00,WUHU216HW,2013-04-22 09:51:00,
2013-04-22 04:56:00,43.9,34.0,30.17,SSW,203,3.8,6.0,68,0.00,,,0.00,WUHU216HW,2013-04-22 09:56:00,
2013-04-22 05:01:00,43.9,34.0,30.17,SSW,203,3.4,6.0,68,0.00,,,0.00,WUHU216HW,2013-04-22 10:01:00,
2013-04-22 05:06:00,43.9,34.0,30.17,SSW,203,3.8,4.9,68,0.00,,,0.00,WUHU216HW,2013-04-22 10:06:00,
2013-04-22 05:11:00,43.9,34.0,30.18,WSW,248,4.5,4.7,68,0.00,,,0.00,WUHU216HW,2013-04-22 10:11:00,
2013-04-22 05:16:00,43.9,34.0,30.18,SSW,203,2.5,4.7,68,0.00,,,0.00,WUHU216HW,2013-04-22 10:16:00,
2013-04-22 05:21:00,43.9,34.0,30.17,SSW,203,1.8,4.9,68,0.00,,,0.00,WUHU216HW,2013-04-22 10:21:00,
2013-04-22 05:26:00,43.9,34.0,30.17,SW,225,3.6,4.9,68,0.00,,,0.00,WUHU216HW,2013-04-22 10:26:00,
2013-04-22 05:31:00,43.9,34.0,30.17,SSE,158,3.4,4.0,68,0.00,,,0.00,WUHU216HW,2013-04-22 10:31:00,
2013-04-22 05:36:00,43.9,34.0,30.17,SSW,203,4.7,5.4,68,0.00,,,0.00,WUHU216HW,2013-04-22 10:36:00,
2013-04-22 05:41:00,43.9,34.0,30.18,South,180,4.3,5.4,68,0.00,,,0.00,WUHU216HW,2013-04-22 10:41:00,
2013-04-22 05:46:00,43.9,34.0,30.18,SW,225,1.3,4.7,68,0.00,,,0.00,WUHU216HW,2013-04-22 10:46:00,
2013-04-22 05:51:00,43.9,34.0,30.17,South,180,3.4,4.7,68,0.00,,,0.00,WUHU216HW,2013-04-22 10:51:00,
2013-04-22 05:56:00,43.9,34.0,30.17,SSW,203,4.5,6.7,68,0.00,,,0.00,WUHU216HW,2013-04-22 10:56:00,
2013-04-22 06:01:00,43.7,33.8,30.17,SSW,203,1.3,6.7,68,0.00,,,0.00,WUHU216HW,2013-04-22 11:01:00,
2013-04-22 06:06:00,43.7,34.3,30.16,SSW,203,5.8,5.8,69,0.00,,,0.00,WUHU216HW,2013-04-22 11:06:00,
2013-04-22 06:11:00,43.7,33.8,30.16,SW,225,1.1,5.8,68,0.00,,,0.00,WUHU216HW,2013-04-22 11:11:00,
2013-04-22 06:16:00,43.7,34.3,30.17,SW,225,1.1,3.4,69,0.00,,,0.00,WUHU216HW,2013-04-22 11:16:00,
2013-04-22 06:21:00,43.6,34.1,30.17,SW,225,2.5,5.1,69,0.00,,,0.00,WUHU216HW,2013-04-22 11:21:00,
2013-04-22 06:26:00,43.7,34.3,30.17,SW,225,0.4,5.1,69,0.00,,,0.00,WUHU216HW,2013-04-22 11:26:00,
2013-04-22 06:31:00,43.9,34.5,30.17,SW,225,0.7,2.5,69,0.00,,,0.00,WUHU216HW,2013-04-22 11:31:00,
2013-04-22 06:36:00,43.9,34.5,30.17,South,180,3.1,3.1,69,0.00,,,0.00,WUHU216HW,2013-04-22 11:36:00,
2013-04-22 06:41:00,44.1,34.6,30.17,SSW,203,6.0,6.0,69,0.00,,,0.00,WUHU216HW,2013-04-22 11:41:00,
2013-04-22 06:46:00,44.1,34.6,30.16,SSW,203,4.5,6.0,69,0.00,,,0.00,WUHU216HW,2013-04-22 11:46:00,
2013-04-22 06:51:00,44.1,34.2,30.16,South,180,2.2,4.5,68,0.00,,,0.00,WUHU216HW,2013-04-22 11:51:00,
2013-04-22 06:56:00,44.3,34.7,30.16,SW,225,2.5,3.6,69,0.00,,,0.00,WUHU216HW,2013-04-22 11:56:00,
2013-04-22 07:01:00,44.5,34.6,30.16,SSW,203,4.0,4.0,68,0.00,,,0.00,WUHU216HW,2013-04-22 12:01:00,
2013-04-22 07:06:00,44.3,34.4,30.16,South,180,3.4,4.5,68,0.00,,,0.00,WUHU216HW,2013-04-22 12:06:00,
2013-04-22 07:11:00,44.5,34.6,30.16,SW,225,2.2,4.5,68,0.00,,,0.00,WUHU216HW,2013-04-22 12:11:00,
2013-04-22 07:16:00,44.5,34.6,30.16,WSW,248,2.5,3.8,68,0.00,,,0.00,WUHU216HW,2013-04-22 12:16:00,
2013-04-22 07:21:00,44.5,34.6,30.17,South,180,4.7,4.7,68,0.00,,,0.00,WUHU216HW,2013-04-22 12:21:00,
2013-04-22 07:26:00,44.6,34.8,30.16,SSE,158,4.7,4.7,68,0.00,,,0.00,WUHU216HW,2013-04-22 12:26:00,
2013-04-22 07:31:00,44.5,34.9,30.16,SSE,158,5.8,6.0,69,0.00,,,0.00,WUHU216HW,2013-04-22 12:31:00,
2013-04-22 07:36:00,44.5,34.9,30.17,South,180,3.6,6.0,69,0.00,,,0.00,WUHU216HW,2013-04-22 12:36:00,
2013-04-22 07:41:00,44.5,34.9,30.16,SW,225,2.5,5.1,69,0.00,,,0.00,WUHU216HW,2013-04-22 12:41:00,
2013-04-22 07:46:00,44.6,35.1,30.17,SSW,203,2.9,5.1,69,0.00,,,0.00,WUHU216HW,2013-04-22 12:46:00,
2013-04-22 07:51:00,45.0,35.1,30.17,South,180,4.5,5.1,68,0.00,,,0.00,WUHU216HW,2013-04-22 12:51:00,
2013-04-22 07:56:00,45.0,35.1,30.16,SSW,203,0.7,4.9,68,0.00,,,0.00,WUHU216HW,2013-04-22 12:56:00,
2013-04-22 08:01:00,45.0,35.1,30.16,SSW,203,3.4,4.9,68,0.00,,,0.00,WUHU216HW,2013-04-22 13:01:00,
2013-04-22 08:06:00,45.2,35.7,30.16,South,180,3.6,5.4,69,0.00,,,0.00,WUHU216HW,2013-04-22 13:06:00,
2013-04-22 08:11:00,45.4,35.4,30.16,SSW,203,2.9,5.6,68,0.00,,,0.00,WUHU216HW,2013-04-22 13:11:00,
2013-04-22 08:16:00,45.7,35.7,30.16,SW,225,4.7,6.3,68,0.00,,,0.00,WUHU216HW,2013-04-22 13:16:00,
2013-04-22 08:21:00,46.1,36.1,30.16,SSW,203,2.5,6.3,68,0.00,,,0.00,WUHU216HW,2013-04-22 13:21:00,
2013-04-22 08:26:00,46.6,36.6,30.16,SE,135,5.8,6.0,68,0.00,,,0.00,WUHU216HW,2013-04-22 13:26:00,
2013-04-22 08:31:00,47.0,36.5,30.16,South,180,4.5,6.0,67,0.00,,,0.00,WUHU216HW,2013-04-22 13:31:00,
2013-04-22 08:36:00,47.5,37.1,30.16,WSW,248,5.8,5.8,67,0.00,,,0.00,WUHU216HW,2013-04-22 13:36:00,
2013-04-22 08:41:00,47.9,36.6,30.16,SE,135,6.0,6.9,65,0.00,,,0.00,WUHU216HW,2013-04-22 13:41:00,
2013-04-22 08:46:00,48.1,36.8,30.16,South,180,5.4,9.6,65,0.00,,,0.00,WUHU216HW,2013-04-22 13:46:00,
2013-04-22 08:51:00,48.2,37.0,30.16,SSE,158,4.0,9.6,65,0.00,,,0.00,WUHU216HW,2013-04-22 13:51:00,
2013-04-22 08:56:00,48.4,36.4,30.15,SSW,203,4.7,6.9,63,0.00,,,0.00,WUHU216HW,2013-04-22 13:56:00,
2013-04-22 09:01:00,48.2,36.6,30.16,South,180,6.5,6.9,64,0.00,,,0.00,WUHU216HW,2013-04-22 14:01:00,
2013-04-22 09:06:00,48.2,36.3,30.15,South,180,6.3,8.7,63,0.00,,,0.00,WUHU216HW,2013-04-22 14:06:00,
2013-04-22 09:11:00,48.4,36.0,30.15,South,180,6.9,8.7,62,0.00,,,0.00,WUHU216HW,2013-04-22 14:11:00,
2013-04-22 09:16:00,48.6,36.2,30.15,South,180,4.7,7.4,62,0.00,,,0.00,WUHU216HW,2013-04-22 14:16:00,
2013-04-22 09:21:00,49.0,36.9,30.15,SE,135,3.4,6.3,63,0.00,,,0.00,WUHU216HW,2013-04-22 14:21:00,
2013-04-22 09:26:00,49.3,36.8,30.15,SSE,158,6.9,6.9,62,0.00,,,0.00,WUHU216HW,2013-04-22 14:26:00,
2013-04-22 09:31:00,49.7,37.2,30.15,South,180,6.9,7.8,62,0.00,,,0.00,WUHU216HW,2013-04-22 14:31:00,
2013-04-22 09:36:00,50.2,37.3,30.15,SSW,203,7.8,7.8,61,0.00,,,0.00,WUHU216HW,2013-04-22 14:36:00,
2013-04-22 09:41:00,50.8,37.4,30.14,SSW,203,4.0,7.8,60,0.00,,,0.00,WUHU216HW,2013-04-22 14:41:00,
2013-04-22 09:46:00,51.1,37.7,30.14,SW,225,5.4,7.6,60,0.00,,,0.00,WUHU216HW,2013-04-22 14:46:00,
2013-04-22 09:51:00,51.7,37.7,30.14,SSE,158,6.3,7.6,59,0.00,,,0.00,WUHU216HW,2013-04-22 14:51:00,
2013-04-22 09:56:00,52.0,37.6,30.14,SSW,203,4.0,8.1,58,0.00,,,0.00,WUHU216HW,2013-04-22 14:56:00,
2013-04-22 10:01:00,52.6,37.7,30.14,South,180,6.3,8.1,57,0.00,,,0.00,WUHU216HW,2013-04-22 15:01:00,
2013-04-22 10:06:00,52.7,37.9,30.14,SSW,203,9.2,9.2,57,0.00,,,0.00,WUHU216HW,2013-04-22 15:06:00,
2013-04-22 10:11:00,52.9,38.1,30.14,South,180,4.7,9.2,57,0.00,,,0.00,WUHU216HW,2013-04-22 15:11:00,
2013-04-22 10:16:00,53.3,38.4,30.14,South,180,4.7,8.5,57,0.00,,,0.00,WUHU216HW,2013-04-22 15:16:00,
2013-04-22 10:21:00,53.8,38.9,30.14,SSW,203,7.2,8.5,57,0.00,,,0.00,WUHU216HW,2013-04-22 15:21:00,
2013-04-22 10:26:00,54.4,38.4,30.14,SSW,203,6.9,8.5,55,0.00,,,0.00,WUHU216HW,2013-04-22 15:26:00,
2013-04-22 10:31:00,54.5,38.6,30.14,South,180,5.4,8.5,55,0.00,,,0.00,WUHU216HW,2013-04-22 15:31:00,
2013-04-22 10:36:00,54.7,38.8,30.14,SSE,158,5.4,8.5,55,0.00,,,0.00,WUHU216HW,2013-04-22 15:36:00,
2013-04-22 10:41:00,54.7,37.4,30.15,SSW,203,4.5,13.0,52,0.00,,,0.00,WUHU216HW,2013-04-22 15:41:00,
2013-04-22 10:46:00,54.5,37.7,30.15,South,180,6.9,13.0,53,0.00,,,0.00,WUHU216HW,2013-04-22 15:46:00,
2013-04-22 10:51:00,54.5,37.7,30.15,SSW,203,4.3,10.5,53,0.00,,,0.00,WUHU216HW,2013-04-22 15:51:00,
2013-04-22 10:56:00,54.5,37.2,30.15,South,180,8.5,8.5,52,0.00,,,0.00,WUHU216HW,2013-04-22 15:56:00,
2013-04-22 11:01:00,54.5,37.7,30.15,SSE,158,6.5,8.5,53,0.00,,,0.00,WUHU216HW,2013-04-22 16:01:00,
2013-04-22 11:06:00,54.9,38.0,30.14,South,180,4.9,8.5,53,0.00,,,0.00,WUHU216HW,2013-04-22 16:06:00,
2013-04-22 11:11:00,55.3,38.4,30.14,SSE,158,6.0,8.5,53,0.00,,,0.00,WUHU216HW,2013-04-22 16:11:00,
2013-04-22 11:16:00,55.6,38.2,30.14,WSW,248,6.3,9.6,52,0.00,,,0.00,WUHU216HW,2013-04-22 16:16:00,
2013-04-22 11:21:00,55.6,38.2,30.14,South,180,4.7,9.6,52,0.00,,,0.00,WUHU216HW,2013-04-22 16:21:00,
2013-04-22 11:26:00,55.8,38.9,30.14,SSE,158,4.9,9.4,53,0.00,,,0.00,WUHU216HW,2013-04-22 16:26:00,
2013-04-22 11:31:00,55.8,37.9,30.14,WSW,248,3.6,8.5,51,0.00,,,0.00,WUHU216HW,2013-04-22 16:31:00,
2013-04-22 11:36:00,55.8,38.9,30.14,South,180,3.4,8.5,53,0.00,,,0.00,WUHU216HW,2013-04-22 16:36:00,
2013-04-22 11:41:00,55.8,38.9,30.14,SSW,203,3.4,6.9,53,0.00,,,0.00,WUHU216HW,2013-04-22 16:41:00,
2013-04-22 11:46:00,56.2,39.3,30.14,SSW,203,6.5,8.9,53,0.00,,,0.00,WUHU216HW,2013-04-22 16:46:00,
2013-04-22 11:51:00,56.3,39.4,30.13,SSW,203,5.6,9.8,53,0.00,,,0.00,WUHU216HW,2013-04-22 16:51:00,
2013-04-22 11:56:00,56.5,39.6,30.13,WSW,248,3.4,9.8,53,0.00,,,0.00,WUHU216HW,2013-04-22 16:56:00,
2013-04-22 12:01:00,56.9,40.4,30.13,South,180,4.7,9.8,54,0.00,,,0.00,WUHU216HW,2013-04-22 17:01:00,
2013-04-22 12:06:00,57.2,40.3,30.13,South,180,4.7,6.9,53,0.00,,,0.00,WUHU216HW,2013-04-22 17:06:00,
2013-04-22 12:11:00,57.2,39.8,30.13,South,180,9.2,9.2,52,0.00,,,0.00,WUHU216HW,2013-04-22 17:11:00,
2013-04-22 12:16:00,57.6,40.6,30.13,South,180,5.8,9.2,53,0.00,,,0.00,WUHU216HW,2013-04-22 17:16:00,
2013-04-22 12:21:00,58.0,41.0,30.13,SSW,203,6.3,7.6,53,0.00,,,0.00,WUHU216HW,2013-04-22 17:21:00,
2013-04-22 12:26:00,58.7,41.1,30.13,SSW,203,8.9,8.9,52,0.00,,,0.00,WUHU216HW,2013-04-22 17:26:00,
2013-04-22 12:31:00,58.7,40.7,30.12,SSW,203,3.6,8.9,51,0.00,,,0.00,WUHU216HW,2013-04-22 17:31:00,
2013-04-22 12:36:00,58.7,40.1,30.12,WSW,248,2.7,10.3,50,0.00,,,0.00,WUHU216HW,2013-04-22 17:36:00,
2013-04-22 12:41:00,59.2,41.1,30.12,South,180,6.0,10.3,51,0.00,,,0.00,WUHU216HW,2013-04-22 17:41:00,
2013-04-22 12:46:00,59.6,41.0,30.12,SSW,203,6.5,9.2,50,0.00,,,0.00,WUHU216HW,2013-04-22 17:46:00,
2013-04-22 12:51:00,59.9,41.3,30.12,SW,225,5.4,9.2,50,0.00,,,0.00,WUHU216HW,2013-04-22 17:51:00,
2013-04-22 12:56:00,60.1,40.9,30.12,SSW,203,4.7,10.1,49,0.00,,,0.00,WUHU216HW,2013-04-22 17:56:00,
2013-04-22 13:01:00,60.5,41.8,30.11,WSW,248,3.6,10.1,50,0.00,,,0.00,WUHU216HW,2013-04-22 18:01:00,
2013-04-22 13:06:00,60.8,42.1,30.11,SE,135,3.8,6.3,50,0.00,,,0.00,WUHU216HW,2013-04-22 18:06:00,
2013-04-22 13:11:00,61.6,41.0,30.11,WSW,248,6.0,6.9,47,0.00,,,0.00,WUHU216HW,2013-04-22 18:11:00,
2013-04-22 13:16:00,62.3,42.3,30.11,South,180,7.8,7.8,48,0.00,,,0.00,WUHU216HW,2013-04-22 18:16:00,
2013-04-22 13:21:00,63.2,43.7,30.10,ESE,113,4.7,7.8,49,0.00,,,0.00,WUHU216HW,2013-04-22 18:21:00,
2013-04-22 13:26:00,63.5,42.9,30.10,SSW,203,2.5,6.7,47,0.00,,,0.00,WUHU216HW,2013-04-22 18:26:00,
2013-04-22 13:31:00,63.2,42.5,30.10,SSW,203,3.4,4.9,47,0.00,,,0.00,WUHU216HW,2013-04-22 18:31:00,
2013-04-22 13:36:00,63.0,41.8,30.09,SSE,158,8.5,8.5,46,0.00,,,0.00,WUHU216HW,2013-04-22 18:36:00,
2013-04-22 13:41:00,63.0,42.3,30.09,South,180,3.6,8.5,47,0.00,,,0.00,WUHU216HW,2013-04-22 18:41:00,
2013-04-22 13:46:00,63.4,42.1,30.09,SSE,158,9.6,9.6,46,0.00,,,0.00,WUHU216HW,2013-04-22 18:46:00,
2013-04-22 13:51:00,64.1,43.3,30.09,SW,225,2.9,9.6,47,0.00,,,0.00,WUHU216HW,2013-04-22 18:51:00,
2013-04-22 13:56:00,64.8,43.4,30.09,SSW,203,2.5,7.6,46,0.00,,,0.00,WUHU216HW,2013-04-22 18:56:00,
2013-04-22 14:01:00,65.2,43.7,30.08,South,180,4.5,9.6,46,0.00,,,0.00,WUHU216HW,2013-04-22 19:01:00,
2013-04-22 14:06:00,65.3,43.4,30.08,SSE,158,4.3,9.6,45,0.00,,,0.00,WUHU216HW,2013-04-22 19:06:00,
2013-04-22 14:11:00,65.2,42.6,30.08,South,180,4.0,10.1,44,0.00,,,0.00,WUHU216HW,2013-04-22 19:11:00,
2013-04-22 14:16:00,65.3,42.8,30.08,West,270,4.7,10.1,44,0.00,,,0.00,WUHU216HW,2013-04-22 19:16:00,
2013-04-22 14:21:00,66.4,44.4,30.07,North,0,5.4,5.4,45,0.00,,,0.00,WUHU216HW,2013-04-22 19:21:00,
2013-04-22 14:26:00,67.5,44.7,30.07,SW,225,3.1,6.5,44,0.00,,,0.00,WUHU216HW,2013-04-22 19:26:00,
2013-04-22 14:31:00,67.5,42.9,30.06,SSW,203,5.4,10.5,41,0.00,,,0.00,WUHU216HW,2013-04-22 19:31:00,
2013-04-22 14:36:00,67.1,42.7,30.06,SSW,203,4.5,10.5,41,0.00,,,0.00,WUHU216HW,2013-04-22 19:36:00,
2013-04-22 14:41:00,67.0,42.5,30.06,SSE,158,4.5,8.9,41,0.00,,,0.00,WUHU216HW,2013-04-22 19:41:00,
2013-04-22 14:46:00,67.3,44.0,30.05,ESE,113,2.7,8.9,43,0.00,,,0.00,WUHU216HW,2013-04-22 19:46:00,
2013-04-22 14:51:00,67.9,43.3,30.05,SSE,158,5.8,5.8,41,0.00,,,0.00,WUHU216HW,2013-04-22 19:51:00,
2013-04-22 14:56:00,68.8,45.9,30.04,South,180,6.3,6.7,44,0.00,,,0.00,WUHU216HW,2013-04-22 19:56:00,
2013-04-22 15:01:00,69.7,44.9,30.04,SW,225,4.5,7.6,41,0.00,,,0.00,WUHU216HW,2013-04-22 20:01:00,
2013-04-22 15:06:00,69.7,44.9,30.04,SSW,203,6.3,7.6,41,0.00,,,0.00,WUHU216HW,2013-04-22 20:06:00,
2013-04-22 15:11:00,70.2,46.0,30.04,East,90,2.0,6.9,42,0.00,,,0.00,WUHU216HW,2013-04-22 20:11:00,
2013-04-22 15:16:00,70.0,45.2,30.04,SW,225,3.4,6.9,41,0.00,,,0.00,WUHU216HW,2013-04-22 20:16:00,
2013-04-22 15:21:00,69.5,43.4,30.04,SE,135,5.4,7.8,39,0.00,,,0.00,WUHU216HW,2013-04-22 20:21:00,
2013-04-22 15:26:00,68.8,43.5,30.03,SSW,203,6.7,7.8,40,0.00,,,0.00,WUHU216HW,2013-04-22 20:26:00,
2013-04-22 15:31:00,68.6,42.6,30.03,SSW,203,8.5,8.7,39,0.00,,,0.00,WUHU216HW,2013-04-22 20:31:00,
2013-04-22 15:36:00,68.0,43.5,30.03,SW,225,2.5,8.7,41,0.00,,,0.00,WUHU216HW,2013-04-22 20:36:00,
2013-04-22 15:41:00,67.7,42.5,30.03,SW,225,4.5,6.9,40,0.00,,,0.00,WUHU216HW,2013-04-22 20:41:00,
2013-04-22 15:46:00,68.2,43.6,30.03,North,0,2.7,6.9,41,0.00,,,0.00,WUHU216HW,2013-04-22 20:46:00,
2013-04-22 15:51:00,69.1,43.1,30.02,SE,135,11.9,11.9,39,0.00,,,0.00,WUHU216HW,2013-04-22 20:51:00,
2013-04-22 15:56:00,69.5,44.1,30.02,SSE,158,7.2,11.9,40,0.00,,,0.00,WUHU216HW,2013-04-22 20:56:00,
2013-04-22 16:01:00,69.1,43.1,30.02,South,180,2.9,11.4,39,0.00,,,0.00,WUHU216HW,2013-04-22 21:01:00,
2013-04-22 16:06:00,68.8,42.0,30.02,SSE,158,10.7,11.4,38,0.00,,,0.00,WUHU216HW,2013-04-22 21:06:00,
2013-04-22 16:11:00,68.8,42.8,30.01,SW,225,5.1,10.7,39,0.00,,,0.00,WUHU216HW,2013-04-22 21:11:00,
2013-04-22 16:16:00,68.4,42.4,30.01,SSE,158,4.7,7.2,39,0.00,,,0.00,WUHU216HW,2013-04-22 21:16:00,
2013-04-22 16:21:00,68.2,41.5,30.01,SSW,203,3.8,11.4,38,0.00,,,0.00,WUHU216HW,2013-04-22 21:21:00,
2013-04-22 16:26:00,68.8,42.8,30.01,South,180,10.5,11.4,39,0.00,,,0.00,WUHU216HW,2013-04-22 21:26:00,
2013-04-22 16:31:00,69.5,43.4,30.00,SSE,158,5.1,10.5,39,0.00,,,0.00,WUHU216HW,2013-04-22 21:31:00,
2013-04-22 16:35:00,70.2,44.0,30.00,SSE,158,4.3,6.9,39,0.00,,,0.00,WUHU216HW,2013-04-22 21:35:00,
2013-04-22 16:42:00,70.2,40.3,30.00,SSE,158,10.5,10.5,34,0.00,,,0.00,WUHU216HW,2013-04-22 21:42:00,
2013-04-22 16:47:00,69.7,42.1,30.00,South,180,8.5,10.5,37,0.00,,,0.00,WUHU216HW,2013-04-22 21:47:00,
2013-04-22 16:52:00,69.5,42.0,29.99,SSE,158,11.4,11.4,37,0.00,,,0.00,WUHU216HW,2013-04-22 21:52:00,
2013-04-22 16:57:00,69.8,42.2,29.99,South,180,5.8,11.4,37,0.00,,,0.00,WUHU216HW,2013-04-22 21:57:00,
2013-04-22 17:02:00,70.0,42.4,29.99,South,180,6.5,9.4,37,0.00,,,0.00,WUHU216HW,2013-04-22 22:02:00,
2013-04-22 17:07:00,69.7,41.3,29.99,SSW,203,6.9,9.6,36,0.00,,,0.00,WUHU216HW,2013-04-22 22:07:00,
2013-04-22 17:12:00,69.5,40.4,29.99,SSW,203,10.1,10.1,35,0.00,,,0.00,WUHU216HW,2013-04-22 22:12:00,
2013-04-22 17:17:00,69.1,40.2,29.99,South,180,12.1,12.1,35,0.00,,,0.00,WUHU216HW,2013-04-22 22:17:00,
2013-04-22 17:22:00,68.6,40.4,29.98,SSE,158,9.8,12.1,36,0.00,,,0.00,WUHU216HW,2013-04-22 22:22:00,
2013-04-22 17:27:00,68.0,39.9,29.98,South,180,7.8,10.5,36,0.00,,,0.00,WUHU216HW,2013-04-22 22:27:00,
2013-04-22 17:32:00,67.3,40.0,29.98,SSW,203,6.7,9.4,37,0.00,,,0.00,WUHU216HW,2013-04-22 22:32:00,
2013-04-22 17:37:00,66.6,39.3,29.98,SSW,203,5.6,9.8,37,0.00,,,0.00,WUHU216HW,2013-04-22 22:37:00,
2013-04-22 17:42:00,66.2,39.8,29.98,SSE,158,6.9,9.8,38,0.00,,,0.00,WUHU216HW,2013-04-22 22:42:00,
2013-04-22 17:47:00,66.1,40.3,29.98,South,180,7.8,7.8,39,0.00,,,0.00,WUHU216HW,2013-04-22 22:47:00,
2013-04-22 17:52:00,66.2,41.2,29.98,SW,225,4.3,7.8,40,0.00,,,0.00,WUHU216HW,2013-04-22 22:52:00,
2013-04-22 17:57:00,66.6,41.6,29.98,SSE,158,5.4,6.9,40,0.00,,,0.00,WUHU216HW,2013-04-22 22:57:00,
2013-04-22 18:02:00,66.4,40.7,29.98,SSW,203,5.1,7.6,39,0.00,,,0.00,WUHU216HW,2013-04-22 23:02:00,
2013-04-22 18:07:00,66.1,40.3,29.98,South,180,4.3,8.7,39,0.00,,,0.00,WUHU216HW,2013-04-22 23:07:00,
2013-04-22 18:12:00,65.5,39.9,29.98,SSE,158,6.5,8.7,39,0.00,,,0.00,WUHU216HW,2013-04-22 23:12:00,
2013-04-22 18:17:00,64.8,40.5,29.98,South,180,6.3,8.1,41,0.00,,,0.00,WUHU216HW,2013-04-22 23:17:00,
2013-04-22 18:22:00,64.3,40.1,29.98,SSE,158,6.5,9.4,41,0.00,,,0.00,WUHU216HW,2013-04-22 23:22:00,
2013-04-22 18:27:00,63.7,40.2,29.98,SE,135,5.4,9.4,42,0.00,,,0.00,WUHU216HW,2013-04-22 23:27:00,
2013-04-22 18:32:00,63.2,40.2,29.98,South,180,8.5,8.9,43,0.00,,,0.00,WUHU216HW,2013-04-22 23:32:00,
2013-04-22 18:37:00,63.0,40.6,29.97,South,180,4.7,8.5,44,0.00,,,0.00,WUHU216HW,2013-04-22 23:37:00,
2013-04-22 18:42:00,62.8,40.4,29.97,SSE,158,6.3,6.9,44,0.00,,,0.00,WUHU216HW,2013-04-22 23:42:00,
2013-04-22 18:47:00,62.6,40.9,29.97,SSE,158,2.9,9.8,45,0.00,,,0.00,WUHU216HW,2013-04-22 23:47:00,
2013-04-22 18:52:00,62.3,40.5,29.97,South,180,8.5,9.8,45,0.00,,,0.00,WUHU216HW,2013-04-22 23:52:00,
2013-04-22 18:57:00,61.9,40.8,29.97,SSE,158,1.8,8.5,46,0.00,,,0.00,WUHU216HW,2013-04-22 23:57:00,
2013-04-22 19:02:00,61.7,40.6,29.97,SE,135,9.2,9.2,46,0.00,,,0.00,WUHU216HW,2013-04-23 00:02:00,
2013-04-22 19:07:00,61.6,40.5,29.96,SSE,158,5.8,9.2,46,0.00,,,0.00,WUHU216HW,2013-04-23 00:07:00,
2013-04-22 19:12:00,61.4,40.9,29.96,SSE,158,2.7,6.5,47,0.00,,,0.00,WUHU216HW,2013-04-23 00:12:00,
2013-04-22 19:17:00,61.0,40.6,29.96,SSE,158,4.7,6.9,47,0.00,,,0.00,WUHU216HW,2013-04-23 00:17:00,
2013-04-22 19:22:00,60.7,40.2,29.96,SE,135,2.5,6.9,47,0.00,,,0.00,WUHU216HW,2013-04-23 00:22:00,
2013-04-22 19:27:00,60.5,40.7,29.96,SSE,158,5.8,5.8,48,0.00,,,0.00,WUHU216HW,2013-04-23 00:27:00,
2013-04-22 19:32:00,60.1,40.3,29.96,SSE,158,6.3,6.3,48,0.00,,,0.00,WUHU216HW,2013-04-23 00:32:00,
2013-04-22 19:37:00,59.8,40.0,29.96,SE,135,4.0,6.3,48,0.00,,,0.00,WUHU216HW,2013-04-23 00:37:00,
2013-04-22 19:42:00,59.4,40.2,29.96,SSW,203,4.7,6.7,49,0.00,,,0.00,WUHU216HW,2013-04-23 00:42:00,
2013-04-22 19:47:00,59.2,40.7,29.96,South,180,4.0,6.7,50,0.00,,,0.00,WUHU216HW,2013-04-23 00:47:00,
2013-04-22 19:52:00,58.9,40.3,29.96,SSW,203,4.5,10.5,50,0.00,,,0.00,WUHU216HW,2013-04-23 00:52:00,
2013-04-22 19:57:00,58.7,40.1,29.97,SE,135,6.0,10.5,50,0.00,,,0.00,WUHU216HW,2013-04-23 00:57:00,
2013-04-22 20:02:00,58.5,40.1,29.97,South,180,4.0,8.5,50,0.00,,,0.00,WUHU216HW,2013-04-23 01:02:00,
2013-04-22 20:07:00,58.3,39.9,29.97,SE,135,7.4,8.5,50,0.00,,,0.00,WUHU216HW,2013-04-23 01:07:00,
2013-04-22 20:12:00,58.1,39.7,29.97,South,180,2.5,7.4,50,0.00,,,0.00,WUHU216HW,2013-04-23 01:12:00,
2013-04-22 20:17:00,58.0,40.0,29.97,SSE,158,5.4,6.3,51,0.00,,,0.00,WUHU216HW,2013-04-23 01:17:00,
2013-04-22 20:22:00,57.8,39.9,29.97,SSW,203,2.2,5.4,51,0.00,,,0.00,WUHU216HW,2013-04-23 01:22:00,
2013-04-22 20:27:00,57.6,39.7,29.97,SSE,158,2.2,5.6,51,0.00,,,0.00,WUHU216HW,2013-04-23 01:27:00,
2013-04-22 20:32:00,57.4,39.5,29.97,ESE,113,4.5,6.7,51,0.00,,,0.00,WUHU216HW,2013-04-23 01:32:00,
2013-04-22 20:37:00,57.4,40.0,29.97,SE,135,2.9,6.7,52,0.00,,,0.00,WUHU216HW,2013-04-23 01:37:00,
2013-04-22 20:42:00,57.2,39.8,29.97,SE,135,3.4,5.4,52,0.00,,,0.00,WUHU216HW,2013-04-23 01:42:00,
2013-04-22 20:47:00,57.1,40.2,29.97,SSE,158,2.9,6.3,53,0.00,,,0.00,WUHU216HW,2013-04-23 01:47:00,
2013-04-22 20:52:00,56.7,39.8,29.97,SE,135,4.3,6.3,53,0.00,,,0.00,WUHU216HW,2013-04-23 01:52:00,
2013-04-22 20:57:00,56.5,40.1,29.97,SE,135,6.0,6.3,54,0.00,,,0.00,WUHU216HW,2013-04-23 01:57:00,
2013-04-22 21:02:00,56.2,39.3,29.97,SE,135,3.6,6.0,53,0.00,,,0.00,WUHU216HW,2013-04-23 02:02:00,
2013-04-22 21:07:00,55.8,38.9,29.97,SE,135,3.1,5.4,53,0.00,,,0.00,WUHU216HW,2013-04-23 02:07:00,
2013-04-22 21:12:00,55.6,39.2,29.97,SSE,158,6.0,6.0,54,0.00,,,0.00,WUHU216HW,2013-04-23 02:12:00,
2013-04-22 21:17:00,55.4,39.4,29.97,SSE,158,4.5,6.0,55,0.00,,,0.00,WUHU216HW,2013-04-23 02:17:00,
2013-04-22 21:22:00,55.3,38.8,29.98,SE,135,4.0,7.2,54,0.00,,,0.00,WUHU216HW,2013-04-23 02:22:00,
2013-04-22 21:27:00,55.1,39.1,29.98,SSE,158,3.6,7.2,55,0.00,,,0.00,WUHU216HW,2013-04-23 02:27:00,
2013-04-22 21:32:00,55.1,39.1,29.98,South,180,5.4,5.4,55,0.00,,,0.00,WUHU216HW,2013-04-23 02:32:00,
2013-04-22 21:37:00,54.9,39.0,29.97,SE,135,2.5,10.3,55,0.00,,,0.00,WUHU216HW,2013-04-23 02:37:00,
2013-04-22 21:42:00,54.7,38.8,29.98,SSE,158,2.5,10.3,55,0.00,,,0.00,WUHU216HW,2013-04-23 02:42:00,
2013-04-22 21:47:00,54.5,39.1,29.98,SE,135,4.0,6.9,56,0.00,,,0.00,WUHU216HW,2013-04-23 02:47:00,
2013-04-22 21:52:00,54.5,38.6,29.98,SSE,158,4.5,6.9,55,0.00,,,0.00,WUHU216HW,2013-04-23 02:52:00,
2013-04-22 21:57:00,54.4,38.9,29.98,SE,135,3.6,6.9,56,0.00,,,0.00,WUHU216HW,2013-04-23 02:57:00,
2013-04-22 22:02:00,54.2,38.8,29.98,ESE,113,3.6,6.9,56,0.00,,,0.00,WUHU216HW,2013-04-23 03:02:00,
2013-04-22 22:07:00,54.0,38.6,29.98,SE,135,3.4,4.9,56,0.00,,,0.00,WUHU216HW,2013-04-23 03:07:00,
2013-04-22 22:12:00,54.0,39.1,29.98,SE,135,3.8,4.7,57,0.00,,,0.00,WUHU216HW,2013-04-23 03:12:00,
2013-04-22 22:17:00,53.8,38.9,29.97,SSW,203,2.2,5.6,57,0.00,,,0.00,WUHU216HW,2013-04-23 03:17:00,
2013-04-22 22:22:00,53.6,38.7,29.97,SSE,158,4.3,5.6,57,0.00,,,0.00,WUHU216HW,2013-04-23 03:22:00,
2013-04-22 22:27:00,53.6,38.7,29.97,SSW,203,2.7,4.7,57,0.00,,,0.00,WUHU216HW,2013-04-23 03:27:00,
2013-04-22 22:32:00,53.6,38.7,29.97,South,180,3.6,6.3,57,0.00,,,0.00,WUHU216HW,2013-04-23 03:32:00,
2013-04-22 22:37:00,53.5,38.5,29.97,SE,135,3.4,6.3,57,0.00,,,0.00,WUHU216HW,2013-04-23 03:37:00,
2013-04-22 22:42:00,53.3,38.4,29.97,SSW,203,2.7,5.4,57,0.00,,,0.00,WUHU216HW,2013-04-23 03:42:00,
2013-04-22 22:47:00,53.1,38.7,29.96,SSE,158,1.8,5.1,58,0.00,,,0.00,WUHU216HW,2013-04-23 03:47:00,
2013-04-22 22:52:00,52.9,38.5,29.96,South,180,2.5,6.7,58,0.00,,,0.00,WUHU216HW,2013-04-23 03:52:00,
2013-04-22 22:57:00,52.7,38.8,29.96,SE,135,4.5,6.9,59,0.00,,,0.00,WUHU216HW,2013-04-23 03:57:00,
2013-04-22 23:01:00,52.7,38.8,29.96,SSE,158,4.0,6.9,59,0.00,,,0.00,WUHU216HW,2013-04-23 04:01:00,
2013-04-22 23:06:00,52.6,38.6,29.96,SSE,158,3.4,5.4,59,0.00,,,0.00,WUHU216HW,2013-04-23 04:06:00,
2013-04-22 23:11:00,52.4,38.4,29.96,SSW,203,2.9,4.9,59,0.00,,,0.00,WUHU216HW,2013-04-23 04:11:00,
2013-04-22 23:16:00,52.2,38.3,29.96,SSE,158,1.3,4.9,59,0.00,,,0.00,WUHU216HW,2013-04-23 04:16:00,
2013-04-22 23:21:00,52.2,38.7,29.95,SSE,158,4.3,5.1,60,0.00,,,0.00,WUHU216HW,2013-04-23 04:21:00,
2013-04-22 23:26:00,52.2,38.7,29.95,SE,135,3.4,5.8,60,0.00,,,0.00,WUHU216HW,2013-04-23 04:26:00,
2013-04-22 23:31:00,52.2,38.7,29.95,SSE,158,4.3,6.0,60,0.00,,,0.00,WUHU216HW,2013-04-23 04:31:00,
2013-04-22 23:36:00,52.0,38.5,29.95,SSE,158,3.1,6.7,60,0.00,,,0.00,WUHU216HW,2013-04-23 04:36:00,
2013-04-22 23:41:00,52.0,38.5,29.95,SSE,158,2.9,6.7,60,0.00,,,0.00,WUHU216HW,2013-04-23 04:41:00,
2013-04-22 23:46:00,51.8,38.8,29.94,South,180,5.1,6.7,61,0.00,,,0.00,WUHU216HW,2013-04-23 04:46:00,
2013-04-22 23:51:00,51.8,38.8,29.94,South,180,2.7,6.7,61,0.00,,,0.00,WUHU216HW,2013-04-23 04:51:00,
2013-04-22 23:56:00,51.8,39.2,29.94,SSE,158,7.6,7.8,62,0.00,,,0.00,WUHU216HW,2013-04-23 04:56:00,